Natchez, MS

2:12 PM CST on November 22, 2019 (GMT -0600)
Hardy-Anders-Adams County

Weather History for KHEZ - September, 2019

Change the Weather History Date:

Saturday, September 14, 2019

  Actual Average Record
Temperature  
Mean Temperature 84 °F -  
Max Temperature 96 °F 88 °F 97 °F (1962)
Min Temperature 71 °F 67 °F 49 °F (1964)
Cooling Degree Days 18    
Growing Degree Days 34 (Base 50)    
Moisture  
Dew Point 68 °F    
Average Humidity 65    
Maximum Humidity 96    
Minimum Humidity 30    
Precipitation  
Precipitation 0.00 in - - ()
Sea Level Pressure  
Sea Level Pressure 30.09 in    
Wind  
Wind Speed 4 mph (East)    
Max Wind Speed 12 mph    
Max Gust Speed -    
Visibility 10 miles    
Events      
Averages and records for this station are not official NWS values.
T = Trace of Precipitation, MM = Missing Value Source: NWS Daily Summary

Daily Weather History Graph

Daily Weather History Graph

Search for Another Location

Airport or City:

Astronomy

Sep. 14, 2019 Rise Set
Actual Time 6:48 AM CDT 7:12 PM CDT
Civil Twilight 6:24 AM CDT 7:36 PM CDT
Nautical Twilight 5:55 AM CDT 8:05 PM CDT
Astronomical Twilight 5:26 AM CDT 8:34 PM CDT
Moon 7:53 PM CDT (9/14) 7:04 AM CDT (9/14)
Length of Visible Light 13h 12m
Length of Day
12h 24m
Full, 100% of the Moon is Illuminated
Sep 14
Full
Sep 21
Last Quarter
Sep 28
New
Oct 5
First Quarter
Oct 13
Full

Hourly Weather History & Observations

Time (CDT) Temp. Heat Index Dew Point Humidity Pressure Visibility Wind Dir Wind Speed Gust Speed Precip Events Conditions
12:56 AM 75.0 °F - 73.0 °F 94% 30.09 in 10.0 mi North 3.5 mph - N/A   Clear
1:56 AM 73.9 °F - 72.0 °F 93% 30.09 in 10.0 mi NE 4.6 mph - N/A   Clear
2:56 AM 73.9 °F - 71.1 °F 91% 30.08 in 10.0 mi Calm Calm - N/A   Clear
3:56 AM 72.0 °F - 70.0 °F 93% 30.08 in 9.0 mi North 4.6 mph - N/A   Clear
4:56 AM 71.1 °F - 69.1 °F 93% 30.08 in 10.0 mi Calm Calm - N/A   Clear
5:56 AM 71.1 °F - 69.1 °F 93% 30.09 in 10.0 mi Calm Calm - N/A   Clear
6:56 AM 71.1 °F - 69.1 °F 93% 30.11 in 10.0 mi North 3.5 mph - N/A   Clear
7:56 AM 71.1 °F - 70.0 °F 96% 30.13 in 9.0 mi Calm Calm - N/A   Clear
8:56 AM 80.1 °F 83.6 °F 71.1 °F 74% 30.14 in 9.0 mi ESE 4.6 mph - N/A   Clear
9:56 AM 84.9 °F 90.1 °F 71.1 °F 63% 30.14 in 9.0 mi ESE 6.9 mph - N/A   Clear
10:13 AM 86.0 °F 91.8 °F 71.6 °F 62% 30.14 in 10.0 mi ESE 5.8 mph - N/A   Partly Cloudy
10:56 AM 88.0 °F 93.8 °F 71.1 °F 57% 30.13 in 10.0 mi East 6.9 mph - N/A   Partly Cloudy
11:56 AM 90.0 °F 93.6 °F 68.0 °F 48% 30.13 in 10.0 mi ESE 6.9 mph - N/A   Clear
12:05 PM 91.4 °F 96.8 °F 69.8 °F 49% 30.13 in 10.0 mi East 8.1 mph - N/A   Partly Cloudy
12:56 PM 93.0 °F 95.0 °F 64.9 °F 39% 30.10 in 10.0 mi East 10.4 mph - N/A   Scattered Clouds
1:56 PM 93.0 °F 95.9 °F 66.0 °F 41% 30.09 in 10.0 mi East 11.5 mph - N/A   Partly Cloudy
2:56 PM 95.0 °F 96.0 °F 63.0 °F 34% 30.06 in 10.0 mi ENE 9.2 mph - N/A   Clear
3:28 PM 96.8 °F 97.1 °F 60.8 °F 30% 30.05 in 10.0 mi ENE 10.4 mph - N/A   Partly Cloudy
3:56 PM 95.0 °F 95.2 °F 61.0 °F 32% 30.05 in 8.0 mi East 11.5 mph - N/A   Partly Cloudy
4:56 PM 93.9 °F 95.2 °F 63.0 °F 36% 30.04 in 10.0 mi East 9.2 mph - N/A   Clear
5:56 PM 91.0 °F 91.5 °F 62.1 °F 38% 30.05 in 10.0 mi East 8.1 mph - N/A   Clear
6:27 PM 89.6 °F 90.1 °F 62.6 °F 40% 30.06 in 10.0 mi East 8.1 mph - N/A   Partly Cloudy
6:56 PM 88.0 °F 89.3 °F 64.0 °F 45% 30.06 in 10.0 mi East 6.9 mph - N/A   Clear
7:56 PM 84.0 °F 86.3 °F 66.0 °F 55% 30.06 in 10.0 mi East 4.6 mph - N/A   Clear
8:56 PM 78.1 °F - 69.1 °F 74% 30.08 in 10.0 mi Calm Calm - N/A   Clear
9:56 PM 75.9 °F - 70.0 °F 82% 30.09 in 10.0 mi Calm Calm - N/A   Clear
10:56 PM 73.9 °F - 70.0 °F 87% 30.09 in 10.0 mi Calm Calm - N/A   Clear
11:56 PM 72.0 °F - 70.0 °F 93% 30.09 in 10.0 mi Calm Calm - N/A   Clear